Flag for Switzerland Weather past 2 weeks in Versoix, Geneva, Switzerland

Now
63 °F

Mild.


Feels Like: 63 °F
Forecast: 40 / 69 °F
Wind: 10 mph from Northeast

Location: Geneve-Cointrin


UV Index: 3 (Moderate)

Visibility: N/A


Pressure: 30.04 "Hg

Humidity: 53%

Dew point: 46 °F

Location of VersoixLocation

Historic Weather in Versoix

°F

Versoix temperature yesterday

Maximum temperature yesterday: 66 °F (at 3:00 PM)
Minimum temperature yesterday: 48 °F (at 4:00 AM)
Average temperature yesterday: 55 °F

Past Weeks' High & Low Weather Summary

 TemperatureHumidityPressure
High69 °F (Apr 11, 6:00 PM)94% (Apr 21, 7:00 AM)30.32 "Hg (Apr 21, 7:00 AM)
Low34 °F (Apr 20, 7:00 AM)23% (Apr 15, 3:00 PM)29.60 "Hg (Apr 20, 5:00 PM)
Average52 °F62%30.01 "Hg
* Reported Apr 8 1:00 PM — Apr 23 1:00 PM, Versoix, Weather by CustomWeather, © 2014

Note: Actual official high and low records may vary slightly from our data, if they occured in-between our weather recording intervals... More about our weather records

Advertising

Historic Weather Conditions — Data for Previous 24 hours

 ConditionsComfort  
Time TempWeatherWind HumidityBarometerVisibility
1:00 PM
Apr 23
63 °FMild.10 mph53%30.04 "HgN/A
12:00 PM62 °FRefreshingly cool.7 mph59%30.06 "HgN/A
11:00 AM59 °FPassing clouds.3 mph62%30.08 "Hg25 mi
10:00 AM56 °FCool.3 mph76%30.09 "HgN/A
9:00 AM54 °FCool.6 mph82%30.09 "HgN/A
8:00 AM53 °FScattered clouds.3 mph90%30.09 "Hg25 mi
7:00 AM50 °FCool.2 mph92%30.09 "HgN/A
6:00 AM51 °FCool.3 mph92%30.09 "HgN/A
5:00 AM51 °FOvercast.1 mph92%30.08 "Hg22 mi
4:00 AM51 °FCool.2 mph90%30.08 "HgN/A
3:00 AM51 °FCool.2 mph93%30.08 "HgN/A
2:00 AM53 °FOvercast.3 mph92%30.07 "Hg25 mi
1:00 AM53 °FCool.1 mph91%30.06 "HgN/A
12:00 AM53 °FCool.3 mph89%30.05 "HgN/A
11:00 PM
Apr 22
53 °FOvercast.1 mph85%30.03 "Hg25 mi
10:00 PM56 °FCool.3 mph80%30.00 "HgN/A
9:00 PM55 °FCool.2 mph86%29.97 "HgN/A
8:00 PM56 °FOvercast.6 mph85%29.95 "Hg37 mi
7:00 PM57 °FCool.8 mph80%29.92 "HgN/A
6:00 PM63 °FMild.5 mph50%29.88 "HgN/A
5:00 PM65 °FPartly sunny.6 mph47%29.86 "Hg25 mi
4:00 PM65 °FMild.6 mph49%29.86 "HgN/A
3:00 PM66 °FMild.7 mph48%29.86 "HgN/A
2:00 PM63 °FPartly sunny.5 mph54%29.86 "Hg25 mi
Weather by CustomWeather, © 2014

See weather overview